Regional Weather Roundup
Issued by NWS Kansas City/Pleasant Hill, MO

Home | Current Version | Previous Version | Text Only | Print | Product List | Glossary On
Versions: 1 2 3 4 5 6 7 8 9 10 11 12 13 14 15 16 17 18 19 20 21 22 23 24 25 26 27 28 29 30 31 32 33 34 35 36 37 38 39 40 41 42 43 44 45 46 47 48 49 50
000
ASUS43 KEAX 270410
RWREAX

WEATHER ROUNDUP FOR EASTERN KANSAS AND NORTHWEST MISSOURI
NATIONAL WEATHER SERVICE KANSAS CITY/PLEASANT HILL MO
1100 PM CDT TUE AUG 26 2014

KSZ040-057-103>105-MOZ028-029-037-043-270500-
...KANSAS CITY METROPOLITAN AREA...

CITY           SKY/WX    TMP DP  RH WIND       PRES   REMARKS
K.C. INTL      CLOUDY    80  71  74 E12       30.09R
K.C. DOWNTOWN  CLOUDY    81  73  76 E9        30.07R
LEES SUMMIT    MOCLDY    80  73  79 NE8       30.09S
OLATHE - IXD   MOCLDY    81  74  79 E3        30.09R
OLATHE - OJC   MOCLDY    81  73  76 E7        30.08R
LAWRENCE       MOCLDY    79  73  82 NE3       30.08R

$$

MOZ001>008-011>017-020>025-030>033-038>040-044>046-053-054-270500-
...NORTHERN AND CENTRAL MISSOURI...

CITY           SKY/WX    TMP DP  RH WIND       PRES   REMARKS
ST. JOSEPH     PTCLDY    74  72  93 N5        30.09S
MOSBY          CLOUDY    79  70  73 NE3       30.08S
WHITEMAN AFB   CLEAR     75  58  55 SE2       30.08R
CLINTON        PTCLDY    72  70  94 CALM      30.08R
SEDALIA        CLEAR     76  70  82 CALM      30.09R
WARSAW         NOT AVBL
MARSHALL       PTCLDY    81  75  83 NE5       30.09S
CHILLICOTHE      N/A     76  71  85 NE5       30.12R
MOBERLY        CLEAR     73  70  88 E5        30.11R
KIRKSVILLE     PTCLDY    71  68  90 N6        30.13R

$$

MOZ041-047>049-056>058-063>065-088>090-097-270500-
...EASTERN AND SOUTHERN MISSOURI...

CITY           SKY/WX    TMP DP  RH WIND       PRES   REMARKS
ST. LOUIS INTL PTCLDY    83  71  67 CALM      30.08R
SPIRIT OF STL  PTCLDY    76  72  87 SE3       30.07R
COLUMBIA       MOCLDY    76  70  82 NE10      30.09R
JEFFERSON CITY MOCLDY    75  71  87 CALM      30.07R
MEXICO         PTCLDY   N/A N/A N/A N3        30.10R
HANNIBAL       PTCLDY    77  70  78 NE5       30.10S
ROLLA          MOCLDY    72  67  84 CALM      30.09R
LEBANON        MOCLDY    73  70  88 SE3       30.11S
OSAGE BEACH    MOCLDY    72  66  83 NE3       30.08S
SPRINGFIELD    PTCLDY    73  68  84 SE5       30.09S
BRANSON        CLEAR     77  66  69 CALM      30.11R
NEVADA         MOCLDY    72  66  83 CALM      30.08R
JOPLIN         MOCLDY    76  69  79 CALM      30.09S
WEST PLAINS    CLEAR     79  68  69 CALM      30.12R

$$

IAZ060-094-KSZ022-034>040-054-083-096-NEZ052-066-093-270500-
...KANSAS...SOUTHEAST NEBRASKA AND IOWA...

CITY           SKY/WX    TMP DP  RH WIND       PRES   REMARKS
TOPEKA         MOCLDY    79  73  82 E5        30.07S
MANHATTAN      MOCLDY    75  68  78 CALM      30.07S
EMPORIA        CLOUDY    76  68  76 E3        30.07F
CHANUTE        MOCLDY    82  64  54 SE8       30.07R
WICHITA        CLOUDY    80  69  69 E6        30.06S
OMAHA          MOCLDY    72  65  78 E6        30.12S
LINCOLN        CLEAR     72  67  84 E5        30.12S
FALLS CITY     CLEAR     73  70  90 E5        30.09S
LAMONI         CLEAR     69  67  93 NE5       30.12F
DES MOINES     MOCLDY    73  64  73 E5        30.13R

$$



USA.gov is the U.S. government's official web portal to all federal, state and local government web resources and services.